This is the latest recevied weather packets stored in our database for station/object WP3XM. If no packets are shown the sender has not sent any weather packets the latest 1 day(s).
| Time | Temp. | Humidity | Pressure | Rain* | Wind** | Luminosity | Snow |
|---|---|---|---|---|---|---|---|
| 1778019895 | 27.78° C | 76% | 1018.1 hPa | 0 mm | 1.79 m/s, 119° | 23 W/m² | - |
| 1778019590 | 27.78° C | 75% | 1018.1 hPa | 0 mm | 1.34 m/s, 137° | 29 W/m² | - |
| 1778019288 | 28.33° C | 74% | 1018.1 hPa | 0 mm | 2.24 m/s, 121° | 35 W/m² | - |
| 1778018985 | 27.78° C | 74% | 1018 hPa | 0 mm | 2.24 m/s, 142° | 40 W/m² | - |
| 1778018681 | 27.78° C | 74% | 1017.7 hPa | 0 mm | 2.68 m/s, 170° | 55 W/m² | - |
| 1778018379 | 28.33° C | 73% | 1017.6 hPa | 0 mm | 3.58 m/s, 104° | 64 W/m² | - |
| 1778018077 | 28.33° C | 73% | 1017.7 hPa | 0 mm | 1.79 m/s, 110° | 76 W/m² | - |
| 1778017775 | 28.89° C | 72% | 1017.6 hPa | 0 mm | 3.13 m/s, 117° | 89 W/m² | - |
| 1778017472 | 28.89° C | 71% | 1017.5 hPa | 0 mm | 2.68 m/s, 143° | 103 W/m² | - |
| 1778017169 | 28.33° C | 72% | 1017.7 hPa | 0 mm | 2.68 m/s, 91° | 116 W/m² | - |
| 1778016867 | 28.33° C | 72% | 1017.5 hPa | 0 mm | 1.79 m/s, 113° | 122 W/m² | - |
| 1778016563 | 28.89° C | 71% | 1017.5 hPa | 0 mm | 3.58 m/s, 147° | 72 W/m² | - |
| 1778016260 | 28.89° C | 71% | 1017.6 hPa | 0 mm | 3.58 m/s, 139° | 180 W/m² | - |
| 1778015956 | 28.89° C | 72% | 1017.7 hPa | 0 mm | 1.34 m/s, 99° | 203 W/m² | - |
| 1778015654 | 28.33° C | 73% | 1017.5 hPa | 0 mm | 0.89 m/s, 185° | 218 W/m² | - |
| 1778015350 | 28.33° C | 74% | 1017.6 hPa | 0 mm | 2.24 m/s, 167° | 79 W/m² | - |
| 1778015048 | 28.33° C | 73% | 1017.5 hPa | 0 mm | 3.58 m/s, 164° | 77 W/m² | - |
| 1778014744 | 28.89° C | 73% | 1017.6 hPa | 0 mm | 3.13 m/s, 170° | 97 W/m² | - |
| 1778014443 | 28.89° C | 72% | 1017.5 hPa | 0 mm | 3.13 m/s, 119° | 147 W/m² | - |
| 1778014139 | 28.89° C | 70% | 1017.7 hPa | 0 mm | 4.02 m/s, 118° | 113 W/m² | - |
| 1778013837 | 28.89° C | 71% | 1017.5 hPa | 0 mm | 3.13 m/s, 135° | 140 W/m² | - |
| 1778013534 | 29.44° C | 69% | 1017.6 hPa | 0 mm | 4.02 m/s, 202° | 373 W/m² | - |
| 1778013230 | 29.44° C | 69% | 1017.4 hPa | 0 mm | 3.13 m/s, 112° | 396 W/m² | - |
| 1778012927 | 30° C | 66% | 1017.6 hPa | 0 mm | 3.13 m/s, 167° | 407 W/m² | - |
| 1778012623 | 30° C | 66% | 1017.8 hPa | 0 mm | 3.13 m/s, 109° | 449 W/m² | - |
* Rain latest hour (hover to see other rain measurements)
** Current wind speed in m/s (hover to see current wind gust speed)